Location: Rotheul
(50.2849°N, 11.2349°E)
Time: 09:31:08
(UTC+01:00)

ISS - Pass Details

Date: 10 November 2018
Orbit: 401 x 408 km, 51.6° (Epoch: 20 November)

Event Time Altitude Azimuth Distance (km) Brightness Sun altitude
Exits shadow 05:58:24 24° 266° (W) 883 -2.7 -13.2°
Maximum altitude 05:59:57 43° 208° (SSW) 577 -3.2 -12.9°
Drops below altitude 10° 06:03:05 10° 135° (SE) 1,461 -0.1 -12.4°
Sets 06:05:13 0° 128° (SE) 2,320 1.3 -12.1°
